Location: Anjeux
(47.8815°N, 6.2076°E)
Time: 10:49:46
(UTC+00:00)

AO-27 - Pass Details

Date: 16 December 2021
Orbit: 784 x 798 km, 98.9° (Epoch: 24 January)

Event Time Altitude Azimuth Distance (km) Brightness Sun altitude
Rises 17:00:16 0° 134° (SE) 3,294 10.6 -12.2°
Reaches altitude 10° 17:02:47 10° 125° (SE) 2,369 9.8 -12.6°
Maximum altitude 17:07:23 33° 63° (ENE) 1,335 8.3 -13.3°
Drops below altitude 10° 17:12:01 10° 2° (N) 2,381 9.9 -14.1°
Sets 17:14:33 0° 353° (N) 3,315 10.8 -14.5°
